{"data":{"norad_id":58418,"epoch":"2026-09-20T08:28:48.048096Z","epoch_age_seconds":159413,"freshness":"FRESH","line1":"1 58418U 23180S   26263.35333389  .00036509  00000+0  12137-2 0  9994","line2":"2 58418  43.0018  32.6431 0004381 319.4093  40.6433 15.30546362157297","mean_motion":15.30546362,"eccentricity":0.0004381,"inclination_deg":43.0018,"raan_deg":32.6431,"arg_perigee_deg":319.4093,"mean_anomaly_deg":40.6433,"bstar":0.0012137,"rev_number":15729,"period_min":94.084049706166,"perigee_km":471.1790893969,"apogee_km":477.18309050732,"semimajor_km":6852.3180899521,"source":"CELESTRAK","updated_at":"2026-09-21T09:00:33.873272Z"}}